Meteo Giornale » Osservazioni meteo Italia » Gioia Del Colle
ore: 20:55 - Osservazioni Meteo Gioia Del Colle
Lat. 40° 46' N Lon. 16° 56' E Alt. 345 metri s.l.m.
27 °C
Sereno
Temp. 24 Ore
24 °C
32 °C
Nord/NOvest
7.4 Km/h
Dew point 17 °C
Umidità 54 %
Visibilità 10 Km
Il sole sorge alle ore 06:19
Il sole tramonta alle ore 19:25
| Data e Ora | Cielo e Fenomeni | T °C | DP °C | Um. % | Pres. hPa | Vis. km | Vento km/h | |
|---|---|---|---|---|---|---|---|---|
| Oggi h: 20:55 | Sereno | 27 | 17 | 54 | 1018 | 10 | N/NO 7.4 | |
| Oggi h: 19:55 | Sereno | 28 | 16 | 48 | 1018 | 10 | N 9.3 | |
| Oggi h: 18:55 | Sereno | 29 | 16 | 45 | 1017 | 10 | N 16.7 | |
| Oggi h: 17:55 | Sereno | 30 | 16 | 42 | 1017 | 10 | N 20.3 | |
| Oggi h: 16:55 | Poco Nuvoloso | 31 | 17 | 43 | 1017 | 10 | N 22.2 | |
| Oggi h: 15:55 | Poco Nuvoloso | 32 | 18 | 43 | 1017 | 10 | N 22.2 | |
| Oggi h: 14:55 | Poco Nuvoloso | 32 | 20 | 49 | 1017 | 10 | N 22.2 | |
| Oggi h: 13:55 | Poco Nuvoloso | 31 | 21 | 55 | 1018 | 10 | N 18.5 | |
| Oggi h: 12:55 | Poco Nuvoloso | 31 | 21 | 55 | 1018 | 10 | N 16.7 | |
| Oggi h: 11:55 | Poco Nuvoloso | 31 | 21 | 55 | 1018 | 10 | N/NO 14.8 | |
| Oggi h: 10:55 | Poco Nuvoloso | 29 | 21 | 62 | 1018 | 10 | N 14.8 | |
| Oggi h: 09:55 | Poco Nuvoloso | 27 | 22 | 74 | 1017 | 9 | NO 11.1 | |
| Oggi h: 08:55 | Nuvoloso | 26 | 23 | 83 | 1017 | 8 | N 14.8 | |
| Oggi h: 07:56 | Molto Nuvoloso | 25 | 24 | 94 | 1017 | 6 | N 11.1 | |
| Oggi h: 06:55 | Foschia | 24 | 23 | 94 | 1017 | 1 | N/NO 9.3 | |
| Oggi h: 05:55 | Foschia | 24 | 23 | 94 | 1017 | 5 | N/NO 7.4 | |
| Oggi h: 04:55 | Molto Nuvoloso | 24 | 23 | 94 | 1017 | 6 | N/NO 7.4 | |
| Oggi h: 03:55 | Foschia | 24 | 23 | 94 | 1016 | 5 | NO 11.1 | |
| Oggi h: 02:55 | Foschia | 24 | 23 | 94 | 1016 | 2 | N 5.5 | |
| Oggi h: 00:55 | Banco di nebbia | 24 | 22 | 88 | 1016 | 0.8 | N/NE 7.4 | |
| Ieri h: 23:55 | Sereno | 24 | 21 | 83 | 1016 | 10 | N 9.3 | |
| Ieri h: 22:55 | Sereno | 26 | 21 | 73 | 1016 | 10 | N 5.5 | |



